Cloud_Cover
95 13 100 59 1 4 5 5 4 0 0 4 58 4 2 4 100 66 8 10 1 2 0 0 0 0 0 0 0 0 0 0 0 0 0 0 0 0 0 0 0 0 0 0 0
51 82 100 68 4 12 5 5 5 4 3 5 5 3 5 5 48 92 72 99 23 2 0 0 0 0 0 0 0 0 0 0 0 0 0 0 0 0 0 0 0 0 0 0 0
46 100 98 90 4 20 5 5 5 5 4 5 5 3 5 78 80 100 100 7 5 0 0 0 0 0 0 0 0 0 0 0 0 0 0 0 0 0 0 0 0 0 0 0 0
100 96 77 38 4 1 7 5 5 5 5 5 5 5 4 5 29 91 100 5 5 0 0 0 0 0 0 0 0 0 0 0 0 0 0 0 0 0 0 0 0 0 0 0 5
92 10 100 1 5 1 3 5 5 5 4 5 5 4 5 4 5 59 100 31 4 3 5 0 0 0 0 0 0 0 0 0 0 0 0 0 0 0 0 0 0 0 0 0 5
74 5 5 5 4 0 3 5 5 5 5 4 5 0 0 0 4 6 21 12 5 5 5 2 0 0 0 0 0 0 0 0 0 0 0 0 0 0 0 0 0 0 0 0 0
8 42 14 4 5 0 0 1 5 5 5 5 0 0 0 0 3 91 12 5 5 5 5 0 0 0 0 0 0 0 0 0 0 0 0 0 0 0 0 0 0 0 0 0 0
68 28 21 23 5 4 0 0 5 37 2 0 5 0 0 0 5 5 7 5 5 5 5 0 0 0 0 0 0 0 0 0 0 5 8 4 0 0 0 0 0 0 0 0 0
34 5 24 5 5 4 0 0 5 6 0 0 0 0 0 0 14 5 5 5 5 5 3 0 0 0 0 0 0 0 0 0 4 5 12 2 0 0 0 0 0 0 0 0 0
0 0 3 0 74 28 3 0 1 0 0 0 0 0 0 2 26 19 5 49 85 5 3 0 0 0 0 0 0 0 0 0 0 0 0 0 0 0 0 0 0 5 0 0 0
4 5 2 5 5 94 5 0 0 0 0 0 1 0 0 2 21 90 69 100 96 5 4 0 0 0 0 0 0 0 0 0 0 0 0 0 0 0 0 0 0 0 0 0 0
5 4 75 100 8 94 19 3 4 0 0 0 0 0 0 0 50 100 96 40 5 3 5 0 0 0 0 0 0 0 0 0 0 0 0 0 0 0 0 0 0 0 0 0 0
92 11 20 100 98 100 99 5 0 0 0 0 0 0 1 2 23 56 86 30 5 8 5 5 5 0 0 0 0 0 0 0 0 0 0 0 0 0 0 0 0 0 0 1 4
93 2 5 80 100 100 39 1 0 0 0 0 0 0 0 4 34 100 100 5 5 5 5 5 2 0 0 0 0 0 0 0 0 0 0 0 0 0 0 0 0 0 5 5 5
85 0 24 100 100 63 2 0 5 0 0 0 0 0 0 5 81 100 84 12 7 5 2 5 2 0 0 0 0 0 0 0 0 0 0 0 0 0 0 0 0 5 5 5 5
5 8 95 100 88 27 0 0 0 1 4 0 0 0 0 6 73 100 97 90 5 4 4 5 0 0 0 0 0 0 0 0 0 0 0 2 0 0 0 0 0 5 5 5 4
5 24 100 100 82 4 0 5 5 5 2 0 0 0 0 5 8 100 100 6 23 26 5 5 4 5 5 2 0 0 0 0 0 0 0 0 0 0 0 0 0 0 0 0 0
53 36 72 18 8 0 4 5 5 5 5 0 0 0 0 32 79 100 100 100 100 100 14 7 5 5 5 4 5 0 0 0 0 4 3 0 0 0 0 0 0 0 0 2 0
92 92 65 5 5 5 5 3 5 5 4 0 0 0 0 0 22 8 38 95 100 100 48 9 7 5 5 5 5 5 5 5 2 5 5 5 5 0 2 0 0 0 0 4 5
73 100 49 27 19 5 5 5 5 5 5 2 2 0 0 5 32 9 5 35 100 100 99 7 5 5 5 4 4 5 5 5 5 5 5 5 1 0 0 0 0 0 0 5 5
91 100 68 6 14 5 5 5 5 19 11 5 0 2 0 0 16 95 97 61 79 100 92 50 14 10 6 5 5 5 5 5 5 5 5 6 7 0 0 0 0 5 5 5 5
100 100 84 5 10 23 7 5 5 5 7 5 0 0 5 1 0 19 94 100 100 100 100 10 5 5 5 35 30 5 5 5 6 5 5 5 5 5 0 4 5 5 5 5 43
100 100 36 6 8 23 5 5 5 5 5 5 2 0 4 0 10 44 59 96 100 100 100 100 88 5 5 5 24 30 80 98 100 100 100 95 100 9 8 48 5 6 9 19 95
99 50 9 20 5 5 5 5 45 12 5 5 4 1 3 5 6 36 30 91 100 100 97 78 78 6 5 5 5 26 93 100 100 100 87 58 87 94 20 5 5 43 100 85 46
91 57 31 5 5 5 5 8 82 35 5 5 5 5 0 4 4 11 88 100 100 89 50 100 100 76 5 4 2 5 29 53 42 9 5 5 5 5 5 5 5 22 56 20 20
100 57 7 5 5 5 42 75 99 70 5 8 5 5 5 5 5 5 5 99 100 100 100 100 100 52 5 6 78 54 100 96 30 6 7 5 5 5 5 5 5 10 5 53 5
98 97 82 10 5 5 6 5 29 51 31 5 5 5 26 4 3 4 0 4 99 100 100 100 100 100 98 80 87 100 100 100 100 98 75 12 5 5 5 5 5 5 5 5 5